Find Meteor

NORAD ID: 7714 Int'l Des: 1975-023 Owner: GUKOSR/GMS Country: SU operational
LEOCIRCULARPOLAR

Current View

Loading 3D Globe...

About Meteor

Description loading...

Upcoming Passes

Passes for default location (London). Set your location on the main map for personalized predictions.

Altitude History

Loading altitude history...

Two-Line Element Set

1 7714U 75023A 26151.40831603 .00000030 00000-0 10226-4 0 9994
2 7714 81.1915 245.8891 0028632 43.7459 316.5972 14.08469196945173
Epoch: May 31, 2026 • Age: 8 hours

Current Status

Altitude 886.9 km
Velocity 7.41 km/s
Sub-Earth Point -52.38°S, 73.67°E
Type other

Most Searched